Preview of NWS' New Version of Forecast
This preview is not operational and should not be used for support decisions.

Regional Weather Roundup (RWR)

Issued by National Weather Service (NWS)

                            
000
ASUS43 KDTX 230410
RWRMI 
MICHIGAN HOURLY REGIONAL WEATHER ROUNDUP
NATIONAL WEATHER SERVICE DETROIT/PONTIAC MI
1200 AM EDT TUE JUL 23 2019

NOTE: "FAIR" INDICATES FEW OR NO CLOUDS BELOW 12,000 FEET WITH NO
SIGNIFICANT WEATHER AND/OR OBSTRUCTION TO VISIBILITY.

MIZ047>049-052>055-059>063-066>070-074>076-081>083-230500-
SOUTHEAST LOWER MICHIGAN
  
CITY           SKY/WX    TMP DP  RH WIND       PRES   REMARKS
ADRIAN         FAIR      62  56  80 N3        30.03R                  
ALMA           FAIR      59  47  65 NW5       30.04S                  
ANN ARBOR        N/A    N/A N/A N/A MISG      30.01S                  
BAD AXE        FAIR      55  51  88 CALM      30.00S                  
CARO           FAIR      57  53  87 CALM      30.00S                  
DETROIT CITY   FAIR      67  47  48 NW3       30.00R                  
DETROIT        FAIR      65  52  62 N5        30.00S                  
FLINT          FAIR      58  53  84 CALM      30.02R                  
GROSSE ILE     FAIR      65  50  58 N3        29.99S                  
HILLSDALE      CLOUDY    64  59  86 NW3       30.03S                  
HOWELL         FAIR      60  54  82 W6        30.03R                  

CITY           SKY/WX    TMP DP  RH WIND       PRES   REMARKS
JACKSON        FAIR      65  54  67 NW6       30.03S                  
LAMBERTVILLE   FAIR      61  59  94 CALM      30.00S                  
LANSING        FAIR      60  51  72 NW5       30.04R                  
LAPEER         FAIR      55  51  88 CALM      30.02R                  
MASON          FAIR      64  53  67 N8        30.04R                  
MONROE         FAIR      63  62  96 CALM      30.00S                  
MT. CLEMENS    FAIR     N/A N/A N/A W6          N/A                   
PONTIAC        FAIR      61  53  75 CALM      29.99S                  
PORT HOPE        N/A     68  57  68 VRB3      29.98S                  
PORT HURON     FAIR      57  48  72 NW7       29.99S                  
TRI CITIES     FAIR      65  52  62 NW10      30.02S                  
MIDLAND        FAIR      58  52  81 CALM      30.02S                  
TROY           FAIR      64  48  56 NW5       30.02S                  
SAGINAW HB     FAIR      63  52  67 W6        30.01S                  
$$
MIZ043>046-050>051-056>058-064>065-071>073-077>080-230500-
SOUTHWEST LOWER MICHIGAN
  
CITY           SKY/WX    TMP DP  RH WIND       PRES   REMARKS
BATTLE CREEK   FAIR      63  50  62 NW5       30.05S                  
BENTON HARBOR  FAIR      65  50  58 VRB3      30.06S                  
BIG RAPIDS     FAIR      58  53  82 CALM      30.06S                  
COLDWATER      FAIR      63  53  70 CALM      30.04S                  
FREMONT        MOCLDY    58  50  74 CALM      30.06S                  
HOLLAND        FAIR      65  51  60 NW3       30.07S                  
GRAND RAPIDS   FAIR      65  50  58 NW8       30.05S                  
IONIA          FAIR     N/A N/A N/A NW6       30.04S                  
KALAMAZOO      FAIR      62  53  72 N7        30.05S                  
LUDINGTON      FAIR      56  55  96 NE8       30.07R                  
MARSHALL       FAIR      65  50  57 CALM      30.04S                  
MOUNT PLEASANT FAIR      61  49  65 W3        30.03S                  
MUSKEGON       MOCLDY    62  51  67 CALM      30.07R                  
SOUTH HAVEN    FAIR      60  51  71 CALM      30.06S                  
$$
MIZ016>042-230500-
NORTHERN LOWER MICHIGAN
  
CITY           SKY/WX    TMP DP  RH WIND       PRES   REMARKS
ALPENA         FAIR      59  47  64 W3        30.00S                  
BEAVER ISLAND  FAIR      53  50  87 CALM      30.04F                  
BELLAIRE       FAIR      56  54  94 CALM      30.05S                  
CADILLAC       FAIR      57  50  76 NW5       30.06S                  
CHARLEVOIX     FAIR      65  48  53 W7        30.07S                  
FRANKFORT      FAIR      59  54  83 CALM      30.07S                  
GAYLORD        FAIR      58  47  66 NW3       30.05S                  
GRAYLING       FAIR      53  51  91 NW5       30.04S                  
HARBOR SPRINGS FAIR      60  48  64 N5        30.03F                  
HOUGHTON LAKE  FAIR      58  50  75 NW6       30.05S                  
MANISTEE       FAIR      58  56  93 CALM      30.06S                  
OSCODA         FAIR      59  49  70 NW5       30.00R                  
PELLSTON       FAIR      54  48  80 NW3       30.03S                  
ROGERS CITY    FAIR      59  48  65 W6        30.02R                  
TRAVERSE CITY  FAIR      65  51  60 NW7       30.04S                  
$$
MIZ007>008-015-230500-
EASTERN UPPER MICHIGAN
  
CITY           SKY/WX    TMP DP  RH WIND       PRES   REMARKS
KINROSS        FAIR      56  49  77 NW8       30.02S                  
MACKINAC ISLAN FAIR      60  48  63 NW6       30.02S                  
NEWBERRY       FAIR      57  46  67 W7        30.02S                  
S. S. MARIE    FAIR      57  49  74 W8        30.01S                  
MUNISING         N/A     57  50  77 S6        30.03F                  
$$
MIZ004>006-011>014-085-230500-
CENTRAL UPPER MICHIGAN
  
CITY           SKY/WX    TMP DP  RH WIND       PRES   REMARKS
MANISTIQUE     FAIR      56  50  80 W5        30.03S                  
ESCANABA       FAIR      58  50  75 W3        30.06S                  
MENOMINEE      FAIR      59  56  89 CALM      30.08F                  
SAWYER-GWINN   FAIR      58  48  69 W5        30.06S                  
$$
MIZ001>003-009>011-084-230500-
WESTERN UPPER MICHIGAN
  
CITY           SKY/WX    TMP DP  RH WIND       PRES   REMARKS
IRON MOUNTAIN  FAIR      55  49  80 CALM      30.07F                  
HOUGHTON       LGT RAIN  63  52  67 NW10      30.06R                  
COPPER HARBOR    N/A     62  53  72 N5        30.03F                  
IRONWOOD       FAIR      60  57  89 CALM      30.15R                  
$$

ABBREVIATIONS USED IN REMARKS
   TC - TEMPERATURE IN CELSIUS
  WCI - WIND CHILL INDEX
   HX - HEAT INDEX
  VSB - VISIBILITY